Regional Weather Roundup
Issued by NWS

Home | Current Version | Previous Version | Text Only | Print | Product List | Glossary On
Versions: 1 2 3 4 5 6 7 8 9 10 11 12 13 14 15 16 17 18 19 20 21 22 23 24 25 26 27 28
000
ASUS43 KMPX 090010
RWRMN
WEATHER ROUNDUP FOR MINNESOTA
NATIONAL WEATHER SERVICE TWIN CITIES/CHANHASSEN MN
700 PM CDT SAT MAY 08 2021


NOTE: "FAIR" INDICATES FEW OR NO CLOUDS BELOW 12,000 FEET WITH NO
SIGNIFICANT WEATHER AND/OR OBSTRUCTIONS TO VISIBILITY. N/A MEANS
CURRENT SKY AND/OR WEATHER CONDITIONS ARE NOT AVAILABLE.

MNZ060>063-068>070-090100-
   Twin Cities Metro

CITY           SKY/WX    TMP DP  RH WIND       PRES   REMARKS
TWIN CITIES    CLOUDY    56  27  32 SE6       29.98F
6HR MIN TEMP:  55; 6HR MAX TEMP:  58;

ST PAUL        PTSUNNY   57  28  33 CALM      29.99F
CRYSTAL        PTSUNNY   56  24  29 NE3       29.97F
BLAINE         CLOUDY    57  23  26 VRB6      29.98F
LAKEVILLE      PTSUNNY   54  23  30 SE6       29.98F
EDEN PRAIRIE   CLOUDY    55  27  34 S6        29.97S
6HR MIN TEMP:  55; 6HR MAX TEMP:  58;

SOUTH ST PAUL  PTSUNNY   56  25  30 CALM      29.98S
$$
MNZ001>005-007-008-013>017-022>024-027-028-090100-
   Northwest Minnesota

CITY           SKY/WX    TMP DP  RH WIND       PRES   REMARKS
BEMIDJI        PTSUNNY   54  15  20 N6        30.01R
HALLOCK        PTSUNNY   57   9  14 N12       30.05R
ROSEAU           N/A     57 N/A N/A E8        30.06R
WARROAD        SUNNY     52  30  43 E9        30.06S
THIEF RVR FALL PTSUNNY   57  22  25 NE8       30.03S
CROOKSTON      PTSUNNY   57  18  21 NE8       30.02R
FOSSTON        PTSUNNY   55  16  21 NE8       30.01R
DETROIT LAKES  PTSUNNY   57  19  23 N6        29.99R
MOORHEAD       CLOUDY    61   9  12 E3        30.00S
PARK RAPIDS    PTSUNNY   58  18  21 CALM      29.97S
MAHNOMEN       FAIR      57  18  22 N6        30.00R
$$
MNZ006-009>011-018-025>026-090100-
   North Central Minnesota

CITY           SKY/WX    TMP DP  RH WIND       PRES   REMARKS
BAUDETTE       SUNNY     53  19  26 N12       30.05R
FLAG ISLAND    SUNNY     52  18  25 NE10      30.05S
INTL FALLS     SUNNY     54  17  23 N7        30.02R
6HR MIN TEMP:  53; 6HR MAX TEMP:  56;

WASKISH        MOSUNNY   55  19  24 N7        30.03R
BIG FORK       MOSUNNY   55  19  24 NW3       30.03S
LONGVILLE      PTSUNNY   55  21  26 CALM      29.98S
GRAND RAPIDS   PTSUNNY   57  21  24 NW5       29.99S
CRANE LAKE     SUNNY     54  18  24 NW7       30.03S
ORR            MOSUNNY   55  12  18 NW7       29.98S
COOK           MOSUNNY   55  18  22 N8        29.98S
WALKER         MOCLDY    55  19  24 NE7       29.99S
$$
MNZ012-019>021-037-090100-
   Northeast Minnesota

CITY           SKY/WX    TMP DP  RH WIND       PRES   REMARKS
DULUTH         MOSUNNY   49  26  41 SE12      29.96S
6HR MIN TEMP:  49; 6HR MAX TEMP:  61;

ELY            SUNNY     54  10  17 N9        29.98S
HIBBING        CLOUDY    57  21  24 N10       29.95F
DULUTH HARBOR  PTSUNNY   41  36  81 E10       30.00S
TWO HARBORS    PTSUNNY   48  28  46 E9        29.97S
SILVER BAY     PTSUNNY   43  27  52 NE7       29.99S
GRAND MARAIS     N/A     41  31  67 E9        30.04F
G MARAIS ARPRT MOSUNNY   39  23  52 E7        30.01S
$$
MNZ029>031-032-039>041-046>048-054>057-064-090100-
   West Central Minnesota

CITY           SKY/WX    TMP DP  RH WIND       PRES   REMARKS
FERGUS FALLS   CLOUDY    54  28  37 S5        29.96S
WHEATON        CLOUDY    54  19  26 SE9       30.02S
MORRIS         CLOUDY    54  16  22 SE6       30.01R
ALEXANDRIA     CLOUDY    53  21  28 SE5       30.00S
ELBOW LAKE     FAIR      53  24  32 SE5       30.00S
WADENA         PTSUNNY   57  28  33 S7        29.98R
GLENWOOD       CLOUDY    54  23  30 E7        30.00S
APPLETON       CLOUDY    54  21  28 E6        29.99R
BENSON         CLOUDY    54  25  32 E6        30.00S
ORTONVILLE     CLOUDY    52  27  37 E5        29.98S
MADISON        PTSUNNY   52  27  37 S6        29.99F
WILLMAR        FAIR      54  21  28 E7        30.01F
$$
MNZ033>034-036-042>043-049>051-058-059-090100-
   Central Minnesota

CITY           SKY/WX    TMP DP  RH WIND       PRES   REMARKS
ST CLOUD       PTSUNNY   55  22  27 VRB7      29.98F
6HR MIN TEMP:  54; 6HR MAX TEMP:  57;

SAUK CENTRE    FAIR      54  23  30 E6        29.99S
PAYNESVILLE    CLOUDY    54  27  35 CALM      30.00R
AITKIN         PTSUNNY   57  18  21 CALM      29.97S
PINE RIVER     PTSUNNY   57  27  30 NE3       30.01S
BRAINERD       PTSUNNY   59  20  22 N7        29.98R
STAPLES        PTSUNNY   57  23  26 S7        29.98S
LONG PRAIRIE   FAIR      52  27  37 S7        30.00S
LITTLE FALLS   PTSUNNY   54  16  22 SW5       29.99S
CAMP RIPLEY    MOCLDY    56  24  29 SW7       29.99S
LITCHFIELD     PTSUNNY   54  27  35 E7        29.99S
BUFFALO        PTSUNNY   55  23  28 MISG      30.00F
MAPLE LAKE     PTSUNNY   55  27  34 CALM      30.00F
HUTCHINSON     PTSUNNY   54  28  36 SE8       30.00S
$$
MNZ037-044-045-052-053-090100-
   East Central Minnesota

CITY           SKY/WX    TMP DP  RH WIND       PRES   REMARKS
PRINCETON      PTSUNNY   57  23  26 CALM      29.98F
MORA           PTSUNNY   55  25  30 CALM      29.99S
CAMBRIDGE      PTSUNNY   59  34  38 SE3       29.99S
RUSH CITY      PTSUNNY   57  25  29 SW3       29.98S
MOOSE LAKE     PTSUNNY   59  27  29 CALM      29.95S
HINCKLEY       MOCLDY    59  28  31 SW3       29.97S
CLOQUET        PTSUNNY   57  18  21 NW5       29.95S
$$
MNZ071>073-080-081-089-090-097-098-090100-
   Southwest Minnesota

CITY           SKY/WX    TMP DP  RH WIND       PRES   REMARKS
MONTEVIDEO     PTSUNNY   52  19  28 S7        29.98F
GRANITE FALLS  CLOUDY    53  26  34 E8        29.99F
CANBY          CLOUDY    48  32  53 SE8       29.98F
MARSHALL       LGT RAIN  46  34  62 SE13      29.98F
REDWOOD FALLS  CLOUDY    51  24  34 E6        29.98R
OLIVIA         PTSUNNY   52  23  32 SE10      29.97F
PIPESTONE      CLOUDY    43  37  81 SE13      29.94F
WINDOM         PTSUNNY   43  36  75 SE9       29.98R
WORTHINGTON    CLOUDY    40  37  89 E14       29.97R
JACKSON        DRIZZLE   41  36  81 SE16      29.96F
TRACY          CLOUDY    46  34  64 E12       29.98R
SLAYTON        CLOUDY    43  34  70 SE9       29.98R
$$
MNZ065>067-074>077-082>085-091>093-090100-
   South Central Minnesota

CITY           SKY/WX    TMP DP  RH WIND       PRES   REMARKS
MANKATO        PTSUNNY   52  23  32 SE8       29.99S
NEW ULM        CLOUDY    50  25  37 SE6       29.98R
ST JAMES       PTSUNNY   46  34  61 SE13      29.98S
FAIRMONT       LGT RAIN  41  36  82 SE15      29.97R
GLENCOE        PTSUNNY   55  23  29 SE7       29.99R
FARIBAULT      PTSUNNY   54  25  32 E7        29.98F
OWATONNA       PTSUNNY   52  28  40 E10       29.96F
WASECA         PTSUNNY   50  25  37 E10       30.00S
ALBERT LEA     PTSUNNY   45  36  70 SE10G23   29.97F
$$
MNZ078>079-086>088-094>096-090100-
   Southeast Minnesota

CITY           SKY/WX    TMP DP  RH WIND       PRES   REMARKS
ROCHESTER      PTSUNNY   50  28  42 SE8       30.00R
6HR MIN TEMP:  50; 6HR MAX TEMP:  52;

RED WING       PTSUNNY   55  25  30 S5        29.98S
STANTON        PTSUNNY   54  25  32 SE7       29.97F
DODGE CENTER   PTSUNNY   52  23  32 SE10      29.98F
WINONA         PTSUNNY   54  32  43 SE6       29.99F
AUSTIN         PTSUNNY   46  34  61 S10       29.98F
PRESTON        PTSUNNY   49  27  41 SE6       30.00S
$$
ABBREVIATIONS USED IN REMARKS
   TC - TEMPERATURES IN CELSIUS
  WCI - WIND CHILL INDEX
   HX - HEAT INDEX
  VSB - VISIBILITY
$$



USA.gov is the U.S. government's official web portal to all federal, state and local government web resources and services.